,,PA_Meas_PMT16A,,PR_Meas_QMR101_102,,RH_Meas_QMH101,,SR_Meas_QMS101,,TA_Meas_QMH101,,GenWind,,GenWind,
time,status,PA,status,PR,status,RH,status,SR,status,TA,status,DirAvg,status,SpdAvg,
2013-06-10, 00:00:04,VALID,916.816,VALID,0,VALID,94.7438,VALID,0,VALID,21.0681,VALID,8,VALID,0,
2013-06-10, 00:01:04,VALID,916.817,VALID,0,VALID,94.7591,VALID,0,VALID,21.0486,VALID,3,VALID,0,
2013-06-10, 00:02:04,VALID,916.82,VALID,0,VALID,94.8124,VALID,0,VALID,21.0291,VALID,303,VALID,0,
2013-06-10, 00:03:04,VALID,916.79,VALID,0,VALID,94.6752,VALID,0,VALID,21.008,VALID,13,VALID,0,
2013-06-10, 00:04:04,VALID,916.827,VALID,0,VALID,94.7896,VALID,0,VALID,21.0096,VALID,87,VALID,0,
2013-06-10, 00:05:04,VALID,916.802,VALID,0,VALID,94.8277,VALID,0,VALID,20.9901,VALID,227,VALID,0,
2013-06-10, 00:06:04,VALID,916.827,VALID,0,VALID,94.8353,VALID,0,VALID,20.9901,VALID,190,VALID,0,
2013-06-10, 00:07:04,VALID,916.83,VALID,0,VALID,94.942,VALID,0,VALID,20.9901,VALID,347,VALID,0,
2013-06-10, 00:08:04,VALID,916.827,VALID,0,VALID,94.9496,VALID,0,VALID,20.969,VALID,275,VALID,0,
2013-06-10, 00:09:04,VALID,916.771,VALID,0,VALID,94.9268,VALID,0,VALID,20.9706,VALID,338,VALID,0,
2013-06-10, 00:10:04,VALID,916.79,VALID,0,VALID,94.9115,VALID,0,VALID,20.9511,VALID,334,VALID,0,
2013-06-10, 00:11:04,VALID,916.783,VALID,0,VALID,95.0869,VALID,0,VALID,20.9917,VALID,33,VALID,0,
2013-06-10, 00:12:04,VALID,916.751,VALID,0,VALID,95.064,VALID,0,VALID,20.9706,VALID,35,VALID,0,
2013-06-10, 00:13:04,VALID,916.788,VALID,0,VALID,95.1402,VALID,0,VALID,20.9706,VALID,50,VALID,0,
2013-06-10, 00:14:04,VALID,916.738,VALID,0,VALID,95.2012,VALID,0,VALID,20.969,VALID,46,VALID,0,
2013-06-10, 00:15:04,VALID,916.722,VALID,0,VALID,95.1783,VALID,0,VALID,20.9706,VALID,327,VALID,0,
2013-06-10, 00:16:04,VALID,916.746,VALID,0,VALID,95.2317,VALID,0,VALID,20.9706,VALID,301,VALID,0,
2013-06-10, 00:17:04,VALID,916.761,VALID,0,VALID,95.2393,VALID,0,VALID,20.9511,VALID,301,VALID,0,
2013-06-10, 00:18:04,VALID,916.759,VALID,0,VALID,95.247,VALID,0,VALID,20.9511,VALID,302,VALID,0,
2013-06-10, 00:19:04,VALID,916.76,VALID,0,VALID,95.2775,VALID,0,VALID,20.9316,VALID,126,VALID,0,
2013-06-10, 00:20:04,VALID,916.756,VALID,0,VALID,95.2927,VALID,0,VALID,20.9316,VALID,359,VALID,0,
2013-06-10, 00:21:04,VALID,916.717,VALID,0,VALID,95.3461,VALID,0,VALID,20.9511,VALID,340,VALID,0,
2013-06-10, 00:22:04,VALID,916.68,VALID,0,VALID,95.3766,VALID,0,VALID,20.9706,VALID,253,VALID,0,
2013-06-10, 00:23:04,VALID,916.655,VALID,0,VALID,95.3994,VALID,0,VALID,20.9706,VALID,254,VALID,0,
2013-06-10, 00:24:04,VALID,916.663,VALID,0,VALID,95.4299,VALID,0,VALID,20.9706,VALID,251,VALID,0,
2013-06-10, 00:25:04,VALID,916.621,VALID,0,VALID,95.4147,VALID,0,VALID,20.9706,VALID,263,VALID,0,
2013-06-10, 00:26:04,VALID,916.594,VALID,0,VALID,95.3918,VALID,0,VALID,20.9706,VALID,44,VALID,0,
2013-06-10, 00:27:04,VALID,916.548,VALID,0,VALID,95.4299,VALID,0,VALID,20.9706,VALID,338,VALID,0,
2013-06-10, 00:28:04,VALID,916.624,VALID,0,VALID,95.3918,VALID,0,VALID,20.9527,VALID,214,VALID,0,
2013-06-10, 00:29:04,VALID,916.569,VALID,0,VALID,95.4375,VALID,0,VALID,20.9316,VALID,61,VALID,0,
2013-06-10, 00:30:04,VALID,916.594,VALID,0,VALID,95.4757,VALID,0,VALID,20.9316,VALID,23,VALID,0,
2013-06-10, 00:31:04,VALID,916.566,VALID,0,VALID,95.5443,VALID,0,VALID,20.9316,VALID,163,VALID,0,
2013-06-10, 00:32:04,VALID,916.522,VALID,0,VALID,95.5443,VALID,0,VALID,20.912,VALID,240,VALID,0,
2013-06-10, 00:33:04,VALID,916.499,VALID,0,VALID,95.5443,VALID,0,VALID,20.8535,VALID,268,VALID,0,
2013-06-10, 00:34:04,VALID,916.452,VALID,0,VALID,95.59,VALID,0,VALID,20.8324,VALID,274,VALID,0,
2013-06-10, 00:35:04,VALID,916.417,VALID,0,VALID,95.6662,VALID,0,VALID,20.8535,VALID,274,VALID,0,
2013-06-10, 00:36:04,VALID,916.375,VALID,0,VALID,95.6891,VALID,0,VALID,20.8535,VALID,174,VALID,0,
2013-06-10, 00:37:04,VALID,916.354,VALID,0,VALID,95.7349,VALID,0,VALID,20.8535,VALID,174,VALID,0,
2013-06-10, 00:38:04,VALID,916.319,VALID,0,VALID,95.7958,VALID,0,VALID,20.873,VALID,31,VALID,0,
2013-06-10, 00:39:04,VALID,916.276,VALID,0,VALID,95.8645,VALID,0,VALID,20.9136,VALID,29,VALID,0,
2013-06-10, 00:40:04,VALID,916.242,VALID,0,VALID,95.8873,VALID,0,VALID,20.8714,VALID,222,VALID,0,
2013-06-10, 00:41:04,VALID,916.182,VALID,0.2,VALID,95.895,VALID,0,VALID,20.873,VALID,108,VALID,0,
2013-06-10, 00:42:04,VALID,916.205,VALID,0,VALID,95.9331,VALID,0,VALID,20.873,VALID,39,VALID,0,
2013-06-10, 00:43:04,VALID,916.176,VALID,0,VALID,95.9636,VALID,0,VALID,20.8535,VALID,3,VALID,0,
2013-06-10, 00:44:04,VALID,916.154,VALID,0,VALID,95.9712,VALID,0,VALID,20.8925,VALID,190,VALID,0,
2013-06-10, 00:45:04,VALID,916.126,VALID,0,VALID,95.9788,VALID,0,VALID,20.8535,VALID,220,VALID,0,
2013-06-10, 00:46:04,VALID,916.151,VALID,0,VALID,96.0017,VALID,0,VALID,20.834,VALID,249,VALID,0,
2013-06-10, 00:47:04,VALID,916.14,VALID,0,VALID,96.0093,VALID,0,VALID,20.834,VALID,104,VALID,0,
2013-06-10, 00:48:04,VALID,916.139,VALID,0,VALID,96.0474,VALID,0,VALID,20.8535,VALID,21,VALID,0,
2013-06-10, 00:49:04,VALID,916.18,VALID,0,VALID,96.0474,VALID,0,VALID,20.873,VALID,164,VALID,0,
2013-06-10, 00:50:04,VALID,916.174,VALID,0,VALID,96.0855,VALID,0,VALID,20.8535,VALID,117,VALID,0,
2013-06-10, 00:51:04,VALID,916.199,VALID,0,VALID,96.055,VALID,0,VALID,20.834,VALID,262,VALID,0,
2013-06-10, 00:52:04,VALID,916.222,VALID,0,VALID,96.055,VALID,0,VALID,20.8145,VALID,32,VALID,0,
2013-06-10, 00:53:04,VALID,916.24,VALID,0,VALID,96.0703,VALID,0,VALID,20.834,VALID,20,VALID,0,
2013-06-10, 00:54:04,VALID,916.242,VALID,0,VALID,96.0855,VALID,0,VALID,20.8145,VALID,278,VALID,0,
2013-06-10, 00:55:04,VALID,916.207,VALID,0,VALID,96.1084,VALID,0,VALID,20.8145,VALID,50,VALID,0,
2013-06-10, 00:56:04,VALID,916.23,VALID,0,VALID,96.116,VALID,0,VALID,20.756,VALID,96,VALID,0,
2013-06-10, 00:57:04,VALID,916.249,VALID,0,VALID,96.1465,VALID,0,VALID,20.7755,VALID,256,VALID,0,
2013-06-10, 00:58:04,VALID,916.264,VALID,0,VALID,96.1618,VALID,0,VALID,20.7365,VALID,33,VALID,0,
2013-06-10, 00:59:04,VALID,916.18,VALID,0,VALID,96.1465,VALID,0,VALID,20.717,VALID,46,VALID,0,
2013-06-10, 01:00:04,VALID,916.228,VALID,0,VALID,96.1694,VALID,0,VALID,20.7365,VALID,264,VALID,0,
2013-06-10, 01:01:04,VALID,916.153,VALID,0,VALID,96.1999,VALID,0,VALID,20.6975,VALID,210,VALID,0,
2013-06-10, 01:02:04,VALID,916.113,VALID,0,VALID,96.1465,VALID,0,VALID,20.66,VALID,288,VALID,0,
2013-06-10, 01:03:04,VALID,916.143,VALID,0,VALID,96.0932,VALID,0,VALID,20.6015,VALID,25,VALID,0,
2013-06-10, 01:04:04,VALID,916.164,VALID,0,VALID,96.0703,VALID,0,VALID,20.543,VALID,177,VALID,0,
2013-06-10, 01:05:04,VALID,916.079,VALID,0,VALID,96.1084,VALID,0,VALID,20.543,VALID,138,VALID,0,
2013-06-10, 01:06:04,VALID,916.042,VALID,0,VALID,96.1389,VALID,0,VALID,20.5024,VALID,81,VALID,0,
2013-06-10, 01:07:04,VALID,915.993,VALID,0,VALID,96.1236,VALID,0,VALID,20.4634,VALID,71,VALID,0,
2013-06-10, 01:08:04,VALID,916.035,VALID,0,VALID,96.1313,VALID,0,VALID,20.4634,VALID,182,VALID,0,
2013-06-10, 01:09:04,VALID,915.98,VALID,0,VALID,96.1389,VALID,0,VALID,20.4244,VALID,18,VALID,0,
2013-06-10, 01:10:04,VALID,915.971,VALID,0,VALID,96.1618,VALID,0,VALID,20.4244,VALID,28,VALID,0,
2013-06-10, 01:11:04,VALID,915.91,VALID,0,VALID,96.177,VALID,0,VALID,20.4049,VALID,43,VALID,0,
2013-06-10, 01:12:04,VALID,915.909,VALID,0,VALID,96.1846,VALID,0,VALID,20.3659,VALID,112,VALID,0,
2013-06-10, 01:13:04,VALID,915.893,VALID,0,VALID,96.1694,VALID,0,VALID,20.3269,VALID,31,VALID,0,
2013-06-10, 01:14:04,VALID,915.869,VALID,0,VALID,96.1846,VALID,0,VALID,20.3464,VALID,27,VALID,0,
2013-06-10, 01:15:04,VALID,915.869,VALID,0,VALID,96.1923,VALID,0,VALID,20.3674,VALID,12,VALID,0,
2013-06-10, 01:16:04,VALID,915.857,VALID,0,VALID,96.2075,VALID,0,VALID,20.3074,VALID,3,VALID,0,
2013-06-10, 01:17:04,VALID,915.833,VALID,0,VALID,96.2151,VALID,0,VALID,20.3074,VALID,272,VALID,0,
2013-06-10, 01:18:04,VALID,915.816,VALID,0,VALID,96.1999,VALID,0,VALID,20.3074,VALID,354,VALID,0,
2013-06-10, 01:19:04,VALID,915.813,VALID,0,VALID,96.2304,VALID,0,VALID,20.2879,VALID,34,VALID,0,
2013-06-10, 01:20:04,VALID,915.85,VALID,0,VALID,96.2456,VALID,0,VALID,20.2879,VALID,23,VALID,0,
2013-06-10, 01:21:04,VALID,915.853,VALID,0,VALID,96.2685,VALID,0,VALID,20.3089,VALID,13,VALID,0,
2013-06-10, 01:22:04,VALID,915.867,VALID,0,VALID,96.2533,VALID,0,VALID,20.2699,VALID,12,VALID,0,
2013-06-10, 01:23:04,VALID,915.871,VALID,0,VALID,96.2533,VALID,0,VALID,20.2504,VALID,241,VALID,0,
2013-06-10, 01:24:04,VALID,915.816,VALID,0,VALID,96.2533,VALID,0,VALID,20.2293,VALID,266,VALID,0,
2013-06-10, 01:25:05,VALID,915.85,VALID,0,VALID,96.2837,VALID,0,VALID,20.2293,VALID,322,VALID,0,
2013-06-10, 01:26:05,VALID,915.816,VALID,0,VALID,96.3142,VALID,0,VALID,20.2489,VALID,273,VALID,0,
2013-06-10, 01:27:05,VALID,915.836,VALID,0,VALID,96.3295,VALID,0,VALID,20.2699,VALID,320,VALID,0,
2013-06-10, 01:28:05,VALID,915.809,VALID,0,VALID,96.3295,VALID,0,VALID,20.2504,VALID,27,VALID,0,
2013-06-10, 01:29:05,VALID,915.802,VALID,0,VALID,96.3752,VALID,0,VALID,20.2684,VALID,349,VALID,0,
2013-06-10, 01:30:05,VALID,915.78,VALID,0,VALID,96.3829,VALID,0,VALID,20.2894,VALID,38,VALID,0,
2013-06-10, 01:31:05,VALID,915.773,VALID,0,VALID,96.3752,VALID,0,VALID,20.2489,VALID,42,VALID,0,
2013-06-10, 01:32:05,VALID,915.814,VALID,0,VALID,96.36,VALID,0,VALID,20.2293,VALID,10,VALID,0,
2013-06-10, 01:33:05,VALID,915.748,VALID,0,VALID,96.3829,VALID,0,VALID,20.2894,VALID,31,VALID,0,
2013-06-10, 01:34:05,VALID,915.721,VALID,0,VALID,96.3829,VALID,0,VALID,20.2684,VALID,16,VALID,0,
2013-06-10, 01:35:05,VALID,915.692,VALID,0,VALID,96.3752,VALID,0,VALID,20.2489,VALID,296,VALID,0,
2013-06-10, 01:36:05,VALID,915.715,VALID,0,VALID,96.3524,VALID,0,VALID,20.2489,VALID,11,VALID,0,
2013-06-10, 01:37:05,VALID,915.714,VALID,0,VALID,96.36,VALID,0,VALID,20.2473,VALID,351,VALID,0,
2013-06-10, 01:38:05,VALID,915.676,VALID,0,VALID,96.3219,VALID,0.107441,VALID,20.2489,VALID,262,VALID,0,
2013-06-10, 01:39:05,VALID,915.65,VALID,0,VALID,96.3219,VALID,0,VALID,20.2278,VALID,21,VALID,0,
2013-06-10, 01:40:05,VALID,915.597,VALID,0,VALID,96.3219,VALID,0,VALID,20.2083,VALID,34,VALID,0,
2013-06-10, 01:41:05,VALID,915.589,VALID,0,VALID,96.2761,VALID,0,VALID,20.2293,VALID,23,VALID,0,
2013-06-10, 01:42:05,VALID,915.564,VALID,0,VALID,96.2761,VALID,0,VALID,20.2098,VALID,218,VALID,0,
2013-06-10, 01:43:05,VALID,915.562,VALID,0,VALID,96.238,VALID,0.107441,VALID,20.1903,VALID,151,VALID,0,
2013-06-10, 01:44:05,VALID,915.532,VALID,0,VALID,96.2075,VALID,0,VALID,20.2098,VALID,115,VALID,0,
2013-06-10, 01:45:05,VALID,915.528,VALID,0,VALID,96.1999,VALID,0,VALID,20.2098,VALID,318,VALID,0,
2013-06-10, 01:46:05,VALID,915.5,VALID,0,VALID,96.1999,VALID,0,VALID,20.2098,VALID,42,VALID,0,
2013-06-10, 01:47:05,VALID,915.509,VALID,0,VALID,96.1694,VALID,0,VALID,20.1903,VALID,49,VALID,0,
2013-06-10, 01:48:05,VALID,915.51,VALID,0,VALID,96.1465,VALID,0,VALID,20.1903,VALID,45,VALID,0,
2013-06-10, 01:49:05,VALID,915.51,VALID,0,VALID,96.1465,VALID,0,VALID,20.2098,VALID,45,VALID,0,
2013-06-10, 01:50:05,VALID,915.48,VALID,0,VALID,96.1236,VALID,0,VALID,20.2098,VALID,45,VALID,0,
2013-06-10, 01:51:05,VALID,915.477,VALID,0,VALID,96.1008,VALID,0,VALID,20.2098,VALID,46,VALID,0,
2013-06-10, 01:52:05,VALID,915.492,VALID,0,VALID,96.0703,VALID,0.107441,VALID,20.1903,VALID,46,VALID,0,
2013-06-10, 01:53:05,VALID,915.43,VALID,0,VALID,96.0627,VALID,0,VALID,20.1903,VALID,33,VALID,0,
2013-06-10, 01:54:05,VALID,915.435,VALID,0,VALID,95.834,VALID,0,VALID,20.0913,VALID,22,VALID,0,
2013-06-10, 01:55:05,VALID,915.4,VALID,0,VALID,95.7425,VALID,0,VALID,20.1318,VALID,33,VALID,0,
2013-06-10, 01:56:05,VALID,915.419,VALID,0,VALID,95.651,VALID,0,VALID,20.1318,VALID,33,VALID,0,
2013-06-10, 01:57:05,VALID,915.386,VALID,0,VALID,95.6053,VALID,0,VALID,20.1318,VALID,278,VALID,0,
2013-06-10, 01:58:05,VALID,915.314,VALID,0,VALID,95.468,VALID,0,VALID,20.0718,VALID,51,VALID,0,
2013-06-10, 01:59:05,VALID,915.351,VALID,0,VALID,95.1402,VALID,0,VALID,20.0733,VALID,48,VALID,0,
2013-06-10, 02:00:05,VALID,915.357,VALID,0,VALID,95.125,VALID,0,VALID,20.0928,VALID,308,VALID,0,
2013-06-10, 02:01:05,VALID,915.341,VALID,0,VALID,94.9573,VALID,0,VALID,20.0913,VALID,305,VALID,0,
2013-06-10, 02:02:05,VALID,915.279,VALID,0,VALID,94.7972,VALID,0,VALID,20.0913,VALID,27,VALID,0,
2013-06-10, 02:03:05,VALID,915.319,VALID,0,VALID,94.5227,VALID,0.107441,VALID,20.0733,VALID,15,VALID,0,
2013-06-10, 02:04:05,VALID,915.28,VALID,0,VALID,94.2788,VALID,0,VALID,20.0538,VALID,13,VALID,0,
2013-06-10, 02:05:05,VALID,915.266,VALID,0,VALID,94.233,VALID,0,VALID,20.0328,VALID,31,VALID,0,
2013-06-10, 02:06:05,VALID,915.258,VALID,0,VALID,94.1339,VALID,0,VALID,20.0553,VALID,19,VALID,0,
2013-06-10, 02:07:05,VALID,915.253,VALID,0,VALID,94.1263,VALID,0,VALID,20.0343,VALID,31,VALID,0,
2013-06-10, 02:08:05,VALID,915.201,VALID,0,VALID,94.1187,VALID,0,VALID,20.0553,VALID,254,VALID,0,
2013-06-10, 02:09:05,VALID,915.204,VALID,0,VALID,93.9129,VALID,0,VALID,20.0163,VALID,210,VALID,0,
2013-06-10, 02:10:05,VALID,915.168,VALID,0,VALID,94.0196,VALID,0,VALID,20.0358,VALID,12,VALID,0,
2013-06-10, 02:11:05,VALID,915.167,VALID,0,VALID,94.1034,VALID,0,VALID,19.9953,VALID,23,VALID,0,
2013-06-10, 02:12:05,VALID,915.134,VALID,0,VALID,94.1797,VALID,0,VALID,20.0358,VALID,15,VALID,0,
2013-06-10, 02:13:05,VALID,915.12,VALID,0,VALID,94.1492,VALID,0,VALID,19.9758,VALID,30,VALID,0,
2013-06-10, 02:14:05,VALID,915.075,VALID,0.2,VALID,94.0196,VALID,0,VALID,19.9773,VALID,21,VALID,0,
2013-06-10, 02:15:05,VALID,915.036,VALID,0,VALID,94.0348,VALID,0,VALID,19.9773,VALID,21,VALID,0,
2013-06-10, 02:16:05,VALID,914.987,VALID,0,VALID,93.7909,VALID,0,VALID,19.9773,VALID,5,VALID,0,
2013-06-10, 02:17:05,VALID,914.986,VALID,0,VALID,93.6994,VALID,0,VALID,19.9578,VALID,14,VALID,0,
2013-06-10, 02:18:05,VALID,914.936,VALID,0,VALID,93.7604,VALID,0,VALID,19.9563,VALID,12,VALID,0,
2013-06-10, 02:19:05,VALID,914.869,VALID,0,VALID,93.7451,VALID,0,VALID,19.9773,VALID,352,VALID,0,
2013-06-10, 02:20:05,VALID,914.821,VALID,0,VALID,93.7223,VALID,0,VALID,19.9773,VALID,352,VALID,0,
2013-06-10, 02:21:05,VALID,914.802,VALID,0,VALID,93.8214,VALID,0,VALID,19.9563,VALID,8,VALID,0,
2013-06-10, 02:22:05,VALID,914.792,VALID,0,VALID,93.7451,VALID,0,VALID,19.9578,VALID,356,VALID,0,
2013-06-10, 02:23:05,VALID,914.803,VALID,0,VALID,93.7909,VALID,0,VALID,19.9383,VALID,348,VALID,0,
2013-06-10, 02:24:05,VALID,914.787,VALID,0,VALID,94.1034,VALID,0,VALID,19.9563,VALID,7,VALID,0,
2013-06-10, 02:25:05,VALID,914.787,VALID,0,VALID,94.073,VALID,0,VALID,19.9758,VALID,7,VALID,0,
2013-06-10, 02:26:05,VALID,914.795,VALID,0,VALID,94.1797,VALID,0,VALID,19.9563,VALID,354,VALID,0,
2013-06-10, 02:27:05,VALID,914.809,VALID,0,VALID,94.2864,VALID,0,VALID,19.9368,VALID,14,VALID,0,
2013-06-10, 02:28:05,VALID,914.802,VALID,0,VALID,94.4846,VALID,0,VALID,19.9383,VALID,22,VALID,0,
2013-06-10, 02:29:05,VALID,914.824,VALID,0,VALID,94.5456,VALID,0,VALID,19.9188,VALID,17,VALID,0,
2013-06-10, 02:30:05,VALID,914.824,VALID,0,VALID,94.599,VALID,0,VALID,19.8978,VALID,13,VALID,0,
2013-06-10, 02:31:05,VALID,914.814,VALID,0,VALID,94.5609,VALID,0,VALID,19.8993,VALID,15,VALID,0,
2013-06-10, 02:32:05,VALID,914.838,VALID,0,VALID,94.6828,VALID,0,VALID,19.8993,VALID,13,VALID,0,
2013-06-10, 02:33:05,VALID,914.834,VALID,0,VALID,94.7972,VALID,0,VALID,19.9188,VALID,3,VALID,0,
2013-06-10, 02:34:05,VALID,914.818,VALID,0,VALID,94.7896,VALID,0,VALID,19.8993,VALID,35,VALID,0,
2013-06-10, 02:35:05,VALID,914.817,VALID,0,VALID,94.7819,VALID,0,VALID,19.8588,VALID,24,VALID,0,
2013-06-10, 02:36:05,VALID,914.792,VALID,0,VALID,94.9268,VALID,0,VALID,19.8588,VALID,16,VALID,0,
2013-06-10, 02:37:05,VALID,914.805,VALID,0,VALID,95.1631,VALID,0.107441,VALID,19.8378,VALID,13,VALID,0,
2013-06-10, 02:38:05,VALID,914.782,VALID,0,VALID,95.2165,VALID,0.107441,VALID,19.8378,VALID,14,VALID,0,
2013-06-10, 02:39:05,VALID,914.79,VALID,0,VALID,95.2927,VALID,0,VALID,19.8573,VALID,352,VALID,0,
2013-06-10, 02:40:05,VALID,914.8,VALID,0,VALID,95.1783,VALID,0.107441,VALID,19.8378,VALID,343,VALID,0,
2013-06-10, 02:41:05,VALID,914.787,VALID,0,VALID,95.2775,VALID,0,VALID,19.7988,VALID,3,VALID,0,
2013-06-10, 02:42:05,VALID,914.783,VALID,0,VALID,95.3384,VALID,0,VALID,19.8393,VALID,2,VALID,0,
2013-06-10, 02:43:05,VALID,914.801,VALID,0,VALID,95.4604,VALID,0.107441,VALID,19.8783,VALID,2,VALID,0,
2013-06-10, 02:44:05,VALID,914.779,VALID,0,VALID,95.4071,VALID,0.107441,VALID,19.8588,VALID,2,VALID,0,
2013-06-10, 02:45:05,VALID,914.793,VALID,0,VALID,95.4223,VALID,0,VALID,19.8573,VALID,2,VALID,0,
2013-06-10, 02:46:05,VALID,914.801,VALID,0,VALID,95.4223,VALID,0.107441,VALID,19.8573,VALID,2,VALID,0,
2013-06-10, 02:47:05,VALID,914.838,VALID,0,VALID,95.4299,VALID,0.107441,VALID,19.8573,VALID,2,VALID,0,
2013-06-10, 02:48:05,VALID,914.859,VALID,0,VALID,95.4299,VALID,0,VALID,19.8783,VALID,2,VALID,0,
2013-06-10, 02:49:05,VALID,914.896,VALID,0,VALID,95.4299,VALID,0.107441,VALID,19.8573,VALID,2,VALID,0,
2013-06-10, 02:50:05,VALID,914.906,VALID,0,VALID,95.468,VALID,0,VALID,19.8573,VALID,2,VALID,0,
2013-06-10, 02:51:05,VALID,914.943,VALID,0,VALID,95.4985,VALID,0,VALID,19.8783,VALID,2,VALID,0,
2013-06-10, 02:52:05,VALID,914.935,VALID,0,VALID,95.5671,VALID,0,VALID,19.9188,VALID,2,VALID,0,
2013-06-10, 02:53:05,VALID,914.961,VALID,0,VALID,95.5976,VALID,0,VALID,19.8978,VALID,2,VALID,0,
2013-06-10, 02:54:05,VALID,914.963,VALID,0,VALID,95.5824,VALID,0,VALID,19.9188,VALID,2,VALID,0,
2013-06-10, 02:55:05,VALID,915.001,VALID,0,VALID,95.6357,VALID,0,VALID,19.9188,VALID,2,VALID,0,
2013-06-10, 02:56:05,VALID,914.989,VALID,0,VALID,95.6281,VALID,0,VALID,19.9383,VALID,2,VALID,0,
2013-06-10, 02:57:05,VALID,914.985,VALID,0,VALID,95.6357,VALID,0,VALID,19.9173,VALID,2,VALID,0,
2013-06-10, 02:58:05,VALID,915.001,VALID,0,VALID,95.6205,VALID,0,VALID,19.9188,VALID,2,VALID,0,
2013-06-10, 02:59:05,VALID,915.017,VALID,0,VALID,95.6053,VALID,0,VALID,19.8798,VALID,2,VALID,0,
2013-06-10, 03:00:05,VALID,915.034,VALID,0,VALID,95.5748,VALID,0,VALID,19.8393,VALID,2,VALID,0,
2013-06-10, 03:01:05,VALID,915.033,VALID,0,VALID,95.6281,VALID,0,VALID,19.8798,VALID,360,VALID,0,
2013-06-10, 03:02:05,VALID,915.059,VALID,0,VALID,95.6739,VALID,0,VALID,19.8393,VALID,320,VALID,0,
2013-06-10, 03:03:05,VALID,915.084,VALID,0,VALID,95.7044,VALID,0,VALID,19.8393,VALID,320,VALID,0,
2013-06-10, 03:04:05,VALID,915.096,VALID,0,VALID,95.7654,VALID,0,VALID,19.8798,VALID,320,VALID,0,
2013-06-10, 03:05:05,VALID,915.07,VALID,0,VALID,95.7425,VALID,0,VALID,19.8213,VALID,320,VALID,0,
2013-06-10, 03:06:05,VALID,915.093,VALID,0,VALID,95.7654,VALID,0.107441,VALID,19.8198,VALID,320,VALID,0,
2013-06-10, 03:07:05,VALID,915.103,VALID,0,VALID,95.7958,VALID,0,VALID,19.8198,VALID,320,VALID,0,
2013-06-10, 03:08:05,VALID,915.1,VALID,0,VALID,95.834,VALID,0,VALID,19.8003,VALID,320,VALID,0,
2013-06-10, 03:09:05,VALID,915.152,VALID,0,VALID,95.895,VALID,0,VALID,19.8003,VALID,320,VALID,0,
2013-06-10, 03:10:05,VALID,915.141,VALID,0,VALID,95.9026,VALID,0.107441,VALID,19.7793,VALID,320,VALID,0,
2013-06-10, 03:11:05,VALID,915.146,VALID,0,VALID,95.8873,VALID,0,VALID,19.7793,VALID,194,VALID,0,
2013-06-10, 03:12:05,VALID,915.14,VALID,0,VALID,95.9178,VALID,0,VALID,19.8198,VALID,194,VALID,0,
2013-06-10, 03:13:05,VALID,915.146,VALID,0,VALID,95.9559,VALID,0.107441,VALID,19.7793,VALID,178,VALID,0,
2013-06-10, 03:14:05,VALID,915.144,VALID,0,VALID,95.9331,VALID,0,VALID,19.7808,VALID,180,VALID,0,
2013-06-10, 03:15:05,VALID,915.157,VALID,0,VALID,95.9178,VALID,0,VALID,19.8003,VALID,181,VALID,0,
2013-06-10, 03:16:05,VALID,915.163,VALID,0,VALID,95.895,VALID,0,VALID,19.8003,VALID,182,VALID,0,
2013-06-10, 03:17:05,VALID,915.16,VALID,0,VALID,95.8797,VALID,0,VALID,19.7808,VALID,182,VALID,0,
2013-06-10, 03:18:05,VALID,915.149,VALID,0,VALID,95.8797,VALID,0.107441,VALID,19.8003,VALID,182,VALID,0,
2013-06-10, 03:19:05,VALID,915.136,VALID,0,VALID,95.8873,VALID,0,VALID,19.7988,VALID,182,VALID,0,
2013-06-10, 03:20:05,VALID,915.122,VALID,0,VALID,95.8873,VALID,0.107441,VALID,19.8198,VALID,182,VALID,0,
2013-06-10, 03:21:05,VALID,915.109,VALID,0,VALID,95.8873,VALID,0,VALID,19.8408,VALID,179,VALID,0,
2013-06-10, 03:22:05,VALID,915.111,VALID,0,VALID,95.8416,VALID,0,VALID,19.8213,VALID,168,VALID,0,
2013-06-10, 03:23:05,VALID,915.164,VALID,0,VALID,95.8416,VALID,0,VALID,19.8408,VALID,168,VALID,0,
2013-06-10, 03:24:05,VALID,915.132,VALID,0,VALID,95.8721,VALID,0,VALID,19.8408,VALID,168,VALID,0,
2013-06-10, 03:25:05,VALID,915.117,VALID,0,VALID,95.834,VALID,0,VALID,19.8003,VALID,168,VALID,0,
2013-06-10, 03:26:05,VALID,915.118,VALID,0,VALID,95.8035,VALID,0,VALID,19.8018,VALID,78,VALID,0,
2013-06-10, 03:27:05,VALID,915.116,VALID,0,VALID,95.7882,VALID,0,VALID,19.7628,VALID,107,VALID,0,
2013-06-10, 03:28:05,VALID,915.108,VALID,0,VALID,95.7654,VALID,0,VALID,19.7433,VALID,103,VALID,0,
2013-06-10, 03:29:05,VALID,915.106,VALID,0,VALID,95.7577,VALID,0,VALID,19.7238,VALID,104,VALID,0,
2013-06-10, 03:30:05,VALID,915.081,VALID,0,VALID,95.7806,VALID,0,VALID,19.7238,VALID,103,VALID,0,
2013-06-10, 03:31:05,VALID,915.042,VALID,0,VALID,95.8111,VALID,0,VALID,19.7043,VALID,86,VALID,0,
2013-06-10, 03:32:05,VALID,915.048,VALID,0,VALID,95.8263,VALID,0,VALID,19.7043,VALID,95,VALID,0,
2013-06-10, 03:33:05,VALID,915.059,VALID,0,VALID,95.8416,VALID,0,VALID,19.7043,VALID,98,VALID,0,
2013-06-10, 03:34:05,VALID,915.063,VALID,0,VALID,95.9026,VALID,0,VALID,19.6848,VALID,112,VALID,0,
2013-06-10, 03:35:05,VALID,915.062,VALID,0,VALID,95.8873,VALID,0,VALID,19.6848,VALID,125,VALID,0,
2013-06-10, 03:36:05,VALID,915.056,VALID,0,VALID,95.9483,VALID,0.107441,VALID,19.6428,VALID,128,VALID,0,
2013-06-10, 03:37:05,VALID,915.018,VALID,0,VALID,95.9864,VALID,0,VALID,19.6833,VALID,128,VALID,0,
2013-06-10, 03:38:05,VALID,915.022,VALID,0,VALID,96.0093,VALID,0.107441,VALID,19.6833,VALID,125,VALID,0,
2013-06-10, 03:39:05,VALID,915.046,VALID,0,VALID,96.0169,VALID,0,VALID,19.6638,VALID,121,VALID,0,
2013-06-10, 03:40:05,VALID,915.023,VALID,0,VALID,96.0932,VALID,0,VALID,19.6638,VALID,120,VALID,0,
2013-06-10, 03:41:05,VALID,915.033,VALID,0,VALID,96.1084,VALID,0,VALID,19.6638,VALID,114,VALID,0,
2013-06-10, 03:42:05,VALID,915.024,VALID,0,VALID,96.1465,VALID,0,VALID,19.6638,VALID,95,VALID,0,
2013-06-10, 03:43:05,VALID,915.023,VALID,0,VALID,96.1465,VALID,0,VALID,19.6443,VALID,102,VALID,0,
2013-06-10, 03:44:05,VALID,915.053,VALID,0,VALID,96.1923,VALID,0,VALID,19.6233,VALID,102,VALID,0,
2013-06-10, 03:45:05,VALID,915.058,VALID,0,VALID,96.2228,VALID,0,VALID,19.6458,VALID,100,VALID,0,
2013-06-10, 03:46:05,VALID,915.067,VALID,0,VALID,96.2075,VALID,0.107441,VALID,19.6248,VALID,92,VALID,0,
2013-06-10, 03:47:05,VALID,915.073,VALID,0,VALID,96.2533,VALID,0,VALID,19.6053,VALID,107,VALID,0,
2013-06-10, 03:48:05,VALID,915.078,VALID,0,VALID,96.2914,VALID,0,VALID,19.6053,VALID,121,VALID,0,
2013-06-10, 03:49:05,VALID,915.056,VALID,0,VALID,96.2837,VALID,0,VALID,19.6053,VALID,121,VALID,0,
2013-06-10, 03:50:05,VALID,915.049,VALID,0,VALID,96.2914,VALID,0.107441,VALID,19.5858,VALID,113,VALID,0,
2013-06-10, 03:51:05,VALID,915.049,VALID,0,VALID,96.3371,VALID,0,VALID,19.5873,VALID,120,VALID,0,
2013-06-10, 03:52:05,VALID,915.031,VALID,0,VALID,96.3447,VALID,0,VALID,19.5873,VALID,126,VALID,0,
2013-06-10, 03:53:05,VALID,914.98,VALID,0,VALID,96.36,VALID,0,VALID,19.5663,VALID,129,VALID,0,
2013-06-10, 03:54:05,VALID,914.958,VALID,0,VALID,96.3676,VALID,0,VALID,19.5678,VALID,139,VALID,0,
2013-06-10, 03:55:05,VALID,914.944,VALID,0,VALID,96.3905,VALID,0,VALID,19.5873,VALID,138,VALID,0,
2013-06-10, 03:56:05,VALID,914.959,VALID,0,VALID,96.3752,VALID,0,VALID,19.5873,VALID,138,VALID,0,
2013-06-10, 03:57:05,VALID,914.93,VALID,0,VALID,96.3676,VALID,0,VALID,19.5873,VALID,178,VALID,0,
2013-06-10, 03:58:05,VALID,914.946,VALID,0,VALID,96.3829,VALID,0,VALID,19.5858,VALID,171,VALID,0,
2013-06-10, 03:59:05,VALID,914.948,VALID,0,VALID,96.3752,VALID,0,VALID,19.6068,VALID,132,VALID,0,
2013-06-10, 04:00:05,VALID,914.954,VALID,0,VALID,96.3752,VALID,0,VALID,19.5858,VALID,111,VALID,0,